Location: Lewisville
(33.0462°N, 96.9942°W)
Time: 09:50:06
(UTC-06:00)

Envisat - Pass Details

Date: 11 October 2019
Orbit: 764 x 766 km, 98.1° (Epoch: 21 November)

Event Time Altitude Azimuth Distance (km) Brightness Sun altitude
Rises 19:40:23 0° 167° (SSE) 3,217 6.1 -9.3°
Reaches altitude 10° 19:42:41 10° 168° (SSE) 2,294 5.4 -9.8°
Maximum altitude 19:47:44 87° 256° (WSW) 772 3.0 -10.8°
Drops below altitude 10° 19:52:51 10° 347° (NNW) 2,308 5.6 -11.9°
Sets 19:55:09 0° 348° (NNW) 3,238 6.4 -12.4°
